sat.trackr.live / text

‹ back to catalog

JEN-1

NORAD 69006 · 2026-100AC

PAYLOAD ACTIVE UNKNOWN

§ Identity

Operator
Country
UK
Launch date
2026-05-03
Launch site
AFWTR
Launch vehicle
Mass (kg)
RCS (m²)

External: N2YO · Heavens-Above · Gunter

§ Orbital elements

Epoch: 2026-05-25T04:34:44.801184Z

Period
94.74 min
Inclination
97.4074°
Eccentricity
0.0006054
Mean motion
15.19970467 rev/d
Perigee alt
501.8 km
Apogee alt
510.1 km
Semi-major
6,884.1 km
B*
2.2363e-4
RAAN
43.4199°
Arg perigee
89.8121°
Mean anomaly
270.3808°
Rev number
331

§ Raw data

JEN-11 69006U 26100AC  26145.19079631  .00004746  00000+0  22363-3 0  99932 69006  97.4074  43.4199 0006054  89.8121 270.3808 15.19970467  3312

JSON: /api/v1/satellites/69006 · /tle

For live sub-satellite position, see the globe view (requires WebGL).

§ Visibility from observer

Set your observer location to see the next 7 days of passes ≥ 10°. The values pass through the URL so the page stays shareable.

No JS? Fill the form by hand. The geolocation button needs JavaScript.

§ Radio — SatNOGS DB

ModeDescriptionDownlinkUplink
FM S-band telemetry 2.260 GHz

1 transmitter · refreshed weekly from db.satnogs.org